This demonstration page uses our WeatherBlox Daily Observations layout. Learn more.

Left ArrowRight Arrow

44.8408, -93.29828

Hourly Observations for August 5, 2021

Temp ( °F °C ) Dew Point ( °F °C ) Humidity (%) Winds ( mph kmh ) Pressure ( in mb ) Visibility ( mi km ) Precip ( " mm )
12:53 am 00:53 Mostly Cloudy 73 22.8 59 15 62 62 S 7 11 29.98 1015 10 16 0.00 0.00
1:53 am 01:53 Cloudy 73 22.8 59 15 62 62 S 6 9 29.96 1015 10 16 0.00 0.00
2:53 am 02:53 Cloudy 72 22.2 58 14.4 61 61 S 6 9 29.96 1015 10 16 0.00 0.00
3:53 am 03:53 Cloudy 70 21.1 59 15 68 68 SE 6 9 29.95 1014 10 16 0.00 0.00
4:53 am 04:53 Cloudy 70 21.1 59 15 68 68 S 7 11 29.94 1014 10 16 0.00 0.00
5:53 am 05:53 Cloudy 72 22.2 59 15 64 64 S 9 15 29.94 1014 10 16 0.00 0.00
6:53 am 06:53 Cloudy 69 20.6 61 16.1 76 76 S 6 9 29.94 1014 10 16 0.00 0.00
7:53 am 07:53 Cloudy 70 21.1 61 16.1 73 73 S 9 15 29.94 1014 10 16 0.00 0.00
8:53 am 08:53 Cloudy with Light Rain 70 21.1 62 16.7 76 76 S 10 17 29.94 1014 10 16 0.00 0.00
9:53 am 09:53 Cloudy 71 21.7 63 17.2 76 76 SSW 10 17 29.93 1014 10 16 0.00 0.00
10:53 am 10:53 Mostly Cloudy 74 23.3 63 17.2 69 69 SSW 10 17 29.93 1014 9 14 0.00 0.00
11:44 am 11:44 Mostly Cloudy 75 23.9 64 17.8 69 69 SSW 13 20 29.91 1013 9 14 0.00 0.00
11:53 am 11:53 Mostly Cloudy 75 23.9 64 17.8 69 69 SSW 12 19 29.92 1013 9 14 0.00 0.00
12:53 pm 12:53 Cloudy 74 23.3 65 18.3 74 74 SW 13 20 29.91 1013 8 13 0.00 0.00
1:53 pm 13:53 Cloudy 75 23.9 65 18.3 71 71 SSW 9 15 29.90 1013 8 13 0.00 0.00
2:16 pm 14:16 Mostly Cloudy 76 24.4 65 18.3 69 69 SSW 13 20 29.87 1012 8 13 0.00 0.00
2:53 pm 14:53 Mostly Cloudy 79 26.1 66 18.9 65 65 S 13 20 29.88 1012 8 13 0.00 0.00
3:53 pm 15:53 Mostly Cloudy 81 27.2 66 18.9 61 61 SSW 12 19 29.87 1011 9 14 0.00 0.00
4:53 pm 16:53 Mostly Cloudy 81 27.2 67 19.4 62 62 SSW 8 13 29.85 1011 9 14 0.00 0.00
5:53 pm 17:53 Mostly Cloudy 82 27.8 68 20 63 63 S 13 20 29.84 1011 9 14 0.00 0.00
6:53 pm 18:53 Mostly Cloudy 82 27.8 68 20 63 63 SSW 10 17 29.83 1010 9 14 0.00 0.00
7:53 pm 19:53 Mostly Cloudy 81 27.2 68 20 65 65 SSW 13 20 29.80 1009 9 14 0.00 0.00
8:37 pm 20:37 Mostly Cloudy with Nearby Thunderstorms 78 25.6 70 21.1 76 76 SSW 13 20 29.79 1009 6 10 0.03 0.76
8:53 pm 20:53 Mostly Cloudy with Nearby Thunderstorms 78 25.6 70 21.1 76 76 SW 14 22 29.82 1010 9 14 0.03 0.76
9:06 pm 21:06 Mostly Cloudy 76 24.4 69 20.6 79 79 SSW 8 13 29.80 1009 10 16 0.00 0.00
9:53 pm 21:53 Mostly Cloudy 76 24.4 69 20.6 79 79 SSW 9 15 29.85 1011 9 14 0.00 0.00
10:24 pm 22:24 Cloudy with Thunderstorms 74 23.3 69 20.6 85 85 SW 12 19 29.82 1010 5 8 0.04 1.02
10:53 pm 22:53 Cloudy with Nearby Thunderstorms 74 23.3 69 20.6 85 85 NNW 7 11 29.86 1011 9 14 0.05 1.27
11:15 pm 23:15 Cloudy with Nearby Thunderstorms 72 22.2 68 20 87 87 NW 17 28 29.85 1011 3 5 0.12 3.05
11:24 pm 23:24 Cloudy with Light Rain 72 22.2 69 20.6 91 91 W 6 9 29.85 1011 8 13 0.31 7.87
11:27 pm 23:27 Cloudy with Nearby Thunderstorms 72 22.2 70 21.1 94 94 W 5 7 29.85 1011 8 13 0.31 7.87
11:53 pm 23:53 Cloudy with Nearby Thunderstorms 73 22.8 70 21.1 90 90 SSW 6 9 29.86 1011 7 11 0.31 7.87

Powered by AerisWeather